Boston, MA (02128)

10:47 AM EST on December 26, 2014 (GMT -0500)
Winthrop Beach | Change Station
CLOSE
Current Station
Personal Weather Station
Location: Winthrop, MA
Elevation: 15 ft
Nearby Weather Stations

Elev 15 ft 42.38 °N, 70.97 °W | Updated 4 minutes ago

Partly Cloudy
Partly Cloudy
47.5 °F
Feels Like 45 °F
N
5.0
Wind Variable Wind from West
Gusts 15.0 mph

Today
High -- | Low -- °F
--% Chance of Precip.
Yesterday
High -- | Low -- °F
Precip. -- in
7:12 AM 4:17 PM
Waxing Crescent, 27% visible
Pressure 30.16 in
Visibility 10.0 miles
Clouds Few 4000 ft
Windchill 45 °F
Dew Point 35 °F
Humidity 62%
Rainfall 0.00 in
Snow Depth Not available.
UV 1.2 out of 12
Pollen .10 out of 12
Air Quality Not available.
Flu Activity Not available.
METAR KBOS 261454Z 26011G19KT 10SM FEW040 07/M01 A3016 RMK AO2 SLP212 T00721006 53018

More Conditions Fewer Conditions

Pressure 30.16 in
Visibility 10.0 miles
Clouds Few 4000 ft
Windchill 45 °F
Dew Point 35 °F
Humidity 62%
Rainfall 0.00 in
Snow Depth Not available.
UV 1.2 out of 12
Pollen .10 out of 12
Air Quality Not available.
Flu Activity Not available.
METAR KBOS 261454Z 26011G19KT 10SM FEW040 07/M01 A3016 RMK AO2 SLP212 T00721006 53018

More Conditions Fewer Conditions

10-Day Weather Forecast

Almanac

Astronomy

Dec. 26, 2014 Rise Set
Actual Time
Civil Twilight
Nautical Twilight
Astronomical Twilight
Moon
Length of Visible Light
Length of Day
Tomorrow will be .
, % of the Moon is Illuminated

Today's Extremes

State Highs State Lows

Community

WunderPhotos

Upload Photos

1,780,620 photos uploaded!

WunderBlogs® & News

Nearby

Air Quality

  Air Quality AQ Index Pollutant
Not available.

Snow Depth

Station Depth Elevation

Earthquake Activity

City Distance Mag. Time & Date
Minimum magnitude displayed is 2.5.

Coastal Water Temperatures

Place Temperature

Nearby Weather Stations